Other Public Products
Issued by NWS Grand Forks, ND

Home | Current Version | Previous Version | Graphics & Text | Print | Product List | Glossary On
Versions: 1 2 3 4 5 6 7 8 9 10 11 12 13 14 15 16 17 18 19 20 21 22 23 24 25 26 27 28 29 30 31 32 33 34 35 36 37 38 39 40 41 42 43 44 45 46 47 48 49 50
000
FPUS83 KFGF 232310
OPUFGF
PRAIRIE TO PINES WEATHER ROUNDUP
NATIONAL WEATHER SERVICE EASTERN NORTH DAKOTA/GRAND FORKS ND
500 PM CST THU FEB 23 2017

 **SATELLITE DATA USED TO AUGMENT SKY COVER AT AUTOMATED STATIONS**
 *****  WEATHER ACROSS EASTERN NORTH DAKOTA  *****

CITY           SKY/WX    TMP DP  RH WIND       PRES   REMARKS
GRAND FORKS    CLOUDY    25  12  58 N18       30.10S WCI  11
GRAND FORKS AF MIX PCPN  25  16  68 N16       30.10S WCI  12
GRAND CITY NWS NOT AVBL
BUXTON         NOT AVBL
DEVILS LAKE    CLOUDY    24  19  81 N12       30.10R WCI  13
FARGO          CLOUDY    28  20  71 N22       30.06R WCI  14
WAHPETON ARPT  CLOUDY    30  21  69 N16G22    30.02R WCI  19
$$

 *****  WEATHER ACROSS CENTRAL AND WESTERN NORTH DAKOTA  *****

CITY           SKY/WX    TMP DP  RH WIND       PRES   REMARKS
JAMESTOWN      CLOUDY    28  24  85 NE10      30.03R WCI  19
BISMARCK       CLOUDY    29  24  82 NE15      30.06R WCI  18
MINOT          FAIR      26  14  60 N10       30.10S WCI  16
MINOT AFB      FAIR      24  14  66 N7        30.10R WCI  16
GARRISON         N/A     25  11  55 NE10      30.07R WCI  15
WILLISTON      CLOUDY    27  14  58 NE7       30.11R WCI  19
DICKINSON      FOG       22  21  96 NE15      30.01R VSB 1   WCI   9
HETTINGER      CLOUDY    29  24  82 NE16      29.99R HAZE    WCI  17
$$

 *****  OTHER OBSERVATIONS NORTHEAST NORTH DAKOTA  *****

CITY           SKY/WX    TMP DP  RH WIND       PRES   REMARKS
WALHALLA       NOT AVBL
LANGDON        NOT AVBL
CAVALIER         N/A     23  18  80 N8        30.13R WCI  14
GRAFTON        CLOUDY    23  18  80 N8G14     30.14R WCI  14
CANDO          NOT AVBL
FORT TOTTEN      N/A     24  22  93 NE5       29.95S WCI  18
ROLLA          FAIR      19  14  79 NW13      30.09R WCI   7
RUGBY            N/A     23  16  74 NE8       30.10R WCI  14
 ***** THE ABOVE OBSERVATIONS ARE NON NWS ARE NOT QUALITY
        CONTROLLED AND MAY MIS-REPORT RAIN FOR SNOW...
$$

 *****  OTHER OBSERVATIONS SOUTHEAST NORTH DAKOTA *****

CITY           SKY/WX    TMP DP  RH WIND       PRES   REMARKS
COOPERSTOWN    CLOUDY    25  23  93 NE14      30.07R WCI  13
VALLEY CITY    CLOUDY    27  27 100 NE15      30.06R WCI  15
OAKES          NOT AVBL
GWINNER        CLOUDY    30  27  86 N20       30.03R WCI  18
SHEYENNE NWR     N/A     28  20  73 NE14      29.95S WCI  17
BUFFALO        NOT AVBL
WYNDMERE       NOT AVBL
 ***** THE ABOVE OBSERVATIONS ARE NON NWS ARE NOT QUALITY
       CONTROLLED AND MAY MIS-REPORT RAIN FOR SNOW...
$$

  *****  WEATHER ACROSS NORTHERN MINNESOTA  *****

CITY           SKY/WX    TMP DP  RH WIND       PRES   REMARKS
FLAG ISLAND    FAIR      19   9  63 NW18      30.05R WCI   4
WARROAD        FAIR      21  10  63 NW17      30.07R WCI   7
ROSEAU         MOCLDY    23  12  63 NW15      30.07R WCI  10
HALLOCK        FAIR      25  18  74 N13       30.12R WCI  13
THF RVR FALLS  FLURRIES  22  14  71 N16       30.09R WCI   8
HALSTAD          N/A     25  18  72 N21         N/A  WCI  11
FOSSTON        CLOUDY    23  18  80 NW12      30.05R WCI  12
BAUDETTE       FAIR      21   9  59 NW17      30.02R WCI   7
WASKISH        FAIR      25  14  63 NW9       30.03R WCI  15
CROOKSTON      MOCLDY    25  16  68 N25G31    30.09S WCI   9
$$
  *****  WEATHER ACROSS CENTRAL AND WEST MINNESOTA  *****

CITY           SKY/WX    TMP DP  RH WIND       PRES   REMARKS
BEMIDJI        FAIR      25  16  67 NW10      30.01R WCI  15
PARK RAPIDS    FAIR      29  17  61 N8        29.97R WCI  21
WADENA         FAIR      27  21  80 N10       29.97R WCI  17
DETROIT LAKES  CLOUDY    27  21  80 N6        30.02R WCI  20
MOORHEAD       CLOUDY    27  19  74 N20G26    30.06R WCI  13
FERGUS FALLS   MOCLDY    27  19  74 N16       30.04R WCI  14
ELBOW LAKE     FAIR      29  22  76 NE13      29.98R WCI  18
MORRIS MN      FAIR      30  25  80 N16       29.96R WCI  19
STAPLES        FAIR      27  21  80 N9        29.97R WCI  17
WHEATON        MOCLDY    28  23  80 N12       30.03R WCI  18
$$
  *****  WEATHER ELSEWHERE ACROSS MINNESOTA  *****

CITY           SKY/WX    TMP DP  RH WIND       PRES   REMARKS
DULUTH         MOCLDY    27  22  81 NW10      29.94R WCI  17
INTRNTL FALLS  FAIR      25  10  53 W12       29.99R WCI  14
ELY            FAIR      27   9  46 NW7       29.94R WCI  19
CLOQUET        CLOUDY    27  21  80 NW13      29.95S WCI  16
BRAINERD       FAIR      27  20  75 N9        29.96F WCI  18
HIBBING        FAIR      25  16  68 NW10      29.96R WCI  15
ALEXANDRIA     FAIR      29  22  75 N14       29.95R WCI  18
SAINT CLOUD    CLOUDY    29  23  78 N8        29.94R WCI  21
MINNEAPOLIS    CLOUDY    32  22  66 N13       29.92R WCI  22
$$

  *****  WEATHER ACROSS SOUTH DAKOTA  *****

CITY           SKY/WX    TMP DP  RH WIND       PRES   REMARKS
SIOUX FALLS    LGT SNOW  30  27  88 NE20G35   29.79F VSB 1   WCI  17
BROOKINGS      PTSUNNY   28  24  85 NE18      29.87S WCI  15
WATERTOWN      CLOUDY    27  21  78 NE20      29.91S WCI  13
HURON          CLOUDY    30  23  75 NE20      29.92R WCI  17
SISSETON         N/A     29  24  82 NE21      30.00R WCI  16
ABERDEEN       CLOUDY    29  20  69 NE16G28   30.00R WCI  17
MITCHELL       LGT SNOW  31  26  82 NE23G32   29.85F WCI  18
PIERRE         CLOUDY    30  21  69 NE22G28   29.92R WCI  17
MOBRIDGE       CLOUDY    32  22  66 NE18G26   29.96S WCI  20
RAPID CITY     LGT SNOW  27  24  89 N16       29.88S FOG     WCI  15
$$

  *****  SOME WEATHER IN NEARBY STATES *****

CITY           SKY/WX    TMP DP  RH WIND       PRES   REMARKS
GLASGOW MT     CLOUDY    27  21  78 E12       30.08R WCI  17
GREAT FALLS MT CLOUDY    26  20  77 N12       29.97S WCI  16
CHEYENNE WY    LGT SNOW  17  12  80 N14G23    29.67R VSB 3/4 WCI   3
SCOTTSBLUFF NE SNOW      24  20  84 N9        29.78R VSB 1/2 WCI  14
OMAHA NE       LGT RAIN  39  34  82 NE20G28   29.60F
DES MOINES IA  CLOUDY    46  38  73 NE18G26   29.62S
DAVENPORT IA   CLOUDY    46  42  86 E21G28    29.63F
CHICAGO IL     LGT RAIN  39  34  82 E12       29.83R
EAU CLAIRE WI  CLOUDY    38  25  59 N9        29.86S
LA CROSSE WI   MOCLDY    45  30  55 N13G18    29.81R
$$

  *****  SOME NATIONAL WEATHER *****

CITY           SKY/WX    TMP DP  RH WIND       PRES   REMARKS
LA GUARDIA NY  FAIR      61  49  64 S6        29.84R
RALEIGH NC     FAIR      70  48  45 S3        29.89R
ATLANTA GA     FAIR      74  51  44 E8        29.83R
NEW ORLEANS LA FAIR      74  60  61 S10       29.76S
OKLAHOMA CITY  FAIR      85  41  21 S20G28    29.37F
ALBUQUERQUE NM FAIR      53   5  14 W25G33    29.67R
SALT LAKE CITY FLURRIES  31  23  72 W12       29.84R WCI  22
LOS ANGELES CA FAIR      57  34  41 W24       30.04S
BOISE ID       CLOUDY    33  25  72 W26G33    29.92R WCI  20
SEATTLE WA     PTSUNNY   43  33  68 W9        30.23F
$$

*** WEATHER ACROSS MANITOBA...SASKATCHEWAN AND ONTARIO ***
                ***ONTARIO***

CITY           SKY/WX    TMP DP  RH WIND       PRES   REMARKS
GERALDTON      MOCLDY    16   3  57 N8G18     29.88R WCI   5
THUNDER BAY    PTCLDY    32  12  43 NW12      29.91R WCI  23
SIOUX LOOKOUT  PTCLDY    16   3  57 NW12      29.98R WCI   3
TORONTO        PTCLDY    46  37  71 NW18      29.82R
BIG TROUT LK   FLURRIES   1  -4  78 N9        30.04R WCI -14
PICKLE LAKE    FLURRIES   5  -4  66 VRB7G18   29.97R WCI  -7
DRYDEN         CLEAR     21   5  49 NW10G17   29.97R WCI  10
KENORA         PTCLDY    19   5  53 NW12      30.01R WCI   7
$$
                *** MANITOBA***

CITY           SKY/WX    TMP DP  RH WIND       PRES   REMARKS
BRANDON        MOSUNNY   25  16  68 NW10      30.10R WCI  15
DAUPHIN        MOCLDY    23  14  68 E8        30.10R WCI  14
ISLAND LAKE    PTCLDY     5  -4  66 NE9       30.14R WCI  -9
PILOT MOUND      N/A     21  14  73 NW6         N/A  WCI  14
THE PAS        PTCLDY    12  -2  52 NE6       30.16S WCI   3
THOMPSON       MOCLDY     9  -4  56 NE5       30.21S WCI   0
WINNIPEG       PTCLDY    21  12  68 NW15      30.12S WCI   8
LYNN LAKE      CLEAR      1  -6  71 E2        30.18S
CHURCHILL      MOCLDY    -9 -13  84 N7        30.36R WCI -24
GILLAM         MOCLDY     3  -8  60 N10       30.25R WCI -12
$$
                ***SASKATCHEWAN***

CITY           SKY/WX    TMP DP  RH WIND       PRES   REMARKS
ESTEVAN        PTSUNNY   25  14  63 W5        30.10S WCI  19
KINDERSLEY     PTSUNNY   28  16  59 W5        30.05S WCI  23
LLOYDMINSTER   PTSUNNY   23  12  63 NW7       30.05F WCI  15
PRINCE ALBERT  MOSUNNY   19   5  53 NW8       30.10S WCI   9
REGINA         FLURRIES  27  16  63 NW13      30.09S WCI  16
YORKTON        CLOUDY    23  14  68 NW17      30.07R WC



USA.gov is the U.S. government's official web portal to all federal, state and local government web resources and services.